Location: Newark
(44.9333°N, 0.5667°E)
Time: 21:22:22
(UTC+00:00)

Oscar 11 - Pass Details

Date: 04 March 2020
Orbit: 612 x 626 km, 97.6° (Epoch: 09 April)

Event Time Altitude Azimuth Distance (km) Brightness Sun altitude
Rises 18:57:26 0° 201° (SSW) 2,898 10.7 -12.8°
Reaches altitude 10° 19:00:03 10° 216° (SW) 1,996 10.1 -13.2°
Maximum altitude 19:03:24 22° 267° (W) 1,391 9.9 -13.8°
Drops below altitude 10° 19:06:46 10° 318° (NW) 2,005 10.4 -14.4°
Sets 19:09:25 0° 334° (NNW) 2,915 11.0 -14.9°
